Weather in Debyosi

Russia / Udmurt Republic     57°39′05″N   53°48′21″E
temp.,
°C
wind,
m/s
gust,
m/s
humid.,
%
clouds,
%
prec.,
mm/h
press.,
hPa
HPBL,
m
23 april, fri
fri2301:00+4s4994100 0.0 1026424
04:00+4s4994100 0.0 1026363
07:00+3s3991100 0.1 1027365
10:00+5s3685100 0.1 1028452
13:00+9s457296 0.0 1028859
16:00+9s357199 0.0 1027740
19:00+8se3678100 0.0 1027266
22:00+5se3888100 0.0 1026294
24 april, sat
sat2401:00+3e2694100 0.0 1025139
04:00+4e399092 0.0 1023276
07:00+4e3989100 0.0 1021368
10:00+6e4986100 0.3 1019588
13:00+5e3894100 1.1 1018507
16:00+5e3896100 1.7 1016421
19:00+5e3997100 0.4 1015532
22:00+5se4896100 0.9 1013931
25 april, sun
sun2501:00+5se3897100 0.2 1012744
04:00+5se4897100 0.4 1010899
07:00+4se5997100 0.4 1009869
10:00+5ese51093100 0.6 1006745
13:00+5se4995100 2.2 10041113
16:00+4sw51295100 6.1 1007727
19:00+5sw51080100 0.4 1007920
22:00+4wsw51188100 0.6 1008887
26 april, mon
mon2601:00+3sw5129138 0.1 1010609
04:00+2sw5129131 0.1 1011650
07:00+2sw411845 0.0 1013726
10:00+6sw611595 0.0 10131593
13:00+8sw7126285 0.9 10131816
16:00+8wsw6116221 2.3 10131734
19:00+6sw49709 0.3 1013556
22:00+2sw258627 0.3 101392
27 april, tue
tue2701:00+2ssw228910 0.0 101323
04:00+1ssw1191100 0.0 101110
07:00+4se117941 0.0 101093
10:00+9sw115018 0.0 10081026
13:00+11wnw234080 0.0 10071918
16:00+12w123888 0.0 10051938
19:00+9sse2456100 0.0 1004102
22:00+6sse3972100 0.1 1004256